Theta_e
333 334 330 331 330 332 329 324 320 315 316 321 321 329 332 330 331 332 327 338 337 337 333 332 333 334 336 336 335 335 335 335 334 334 333 332 332 333
334 333 332 332 332 330 331 329 325 320 314 322 322 326 330 332 339 330 331 338 338 335 333 332 332 333 334 335 334 333 334 334 334 333 333 333 333 332
336 333 333 332 330 329 331 328 326 325 321 321 324 327 330 329 332 333 334 331 330 335 334 332 331 331 332 333 333 332 332 332 332 332 332 333 333 333
334 332 331 334 329 330 329 328 328 328 324 320 324 325 326 327 329 330 333 335 330 334 334 332 331 330 330 330 329 329 329 329 329 330 330 331 331 332
336 334 332 332 331 331 332 329 329 329 327 324 322 325 326 326 325 328 328 329 332 335 330 330 329 328 327 326 325 324 323 323 323 324 325 326 327 329
338 337 334 333 331 331 329 329 329 327 326 323 322 322 323 323 324 320 319 322 324 330 331 329 328 329 329 326 325 324 321 319 318 318 318 320 322 324
337 339 338 338 339 335 331 329 328 325 322 320 319 318 318 319 318 319 319 320 322 323 322 321 320 319 319 322 327 330 325 321 319 317 316 315 316 317
336 336 335 340 339 337 334 333 329 323 319 319 318 318 319 322 324 320 319 316 314 322 318 318 317 317 319 318 324 325 323 322 320 318 317 315 314 315
337 336 337 337 333 330 330 330 329 329 327 321 319 319 319 321 323 321 320 320 318 320 316 313 316 315 319 322 324 324 322 320 318 318 317 316 315 314
338 336 335 334 333 330 328 325 326 327 326 327 324 324 322 324 323 322 320 316 315 316 316 311 315 314 318 319 324 324 321 319 318 316 315 313 311 309
336 338 338 333 330 328 328 325 324 325 328 326 326 326 325 325 326 317 313 309 309 310 314 314 314 312 311 310 312 320 318 316 316 316 316 314 311 310
333 335 329 331 324 323 326 323 321 322 323 324 324 322 321 320 323 318 318 310 311 309 314 312 311 305 304 305 308 313 317 316 314 313 313 312 309 313
333 334 334 322 318 316 319 323 323 321 320 316 315 315 315 315 317 319 319 316 312 311 317 313 306 305 305 308 312 315 317 318 317 316 311 309 308 310
333 333 330 319 313 313 316 319 316 315 314 313 313 312 311 313 315 316 317 318 318 316 314 311 308 309 308 307 308 312 314 316 316 314 314 313 310 310
331 321 315 312 310 312 315 317 314 311 310 311 310 310 311 313 314 309 309 307 306 306 308 307 313 312 309 307 309 310 310 311 313 313 314 314 310 310
316 313 315 316 315 316 313 312 311 311 311 311 311 310 310 307 306 306 303 302 299 300 304 308 314 312 309 309 309 309 309 307 311 313 309 308 309 310
317 316 313 312 311 311 312 311 313 313 313 314 313 308 305 305 304 303 301 299 297 299 300 308 310 312 312 311 310 308 308 308 310 308 306 304 306 308
316 318 313 314 314 314 314 314 317 318 315 315 311 306 304 304 301 302 300 298 298 298 300 302 307 305 306 308 315 306 308 308 307 306 305 303 302 304
315 316 316 315 315 315 316 317 313 313 313 310 305 305 304 301 302 299 298 299 298 297 297 305 302 301 299 301 306 311 308 307 305 303 303 302 300 302
310 310 310 311 313 312 310 308 306 306 304 300 299 299 299 300 298 298 298 296 296 297 297 302 300 299 301 304 305 308 306 305 303 301 300 301 302 305
308 308 306 307 307 307 307 305 304 301 299 298 297 299 300 297 296 297 297 300 300 296 299 301 301 308 304 304 301 302 305 306 305 301 299 297 297 299
305 306 306 305 306 305 303 302 301 300 299 300 299 299 297 296 296 297 296 296 296 296 296 300 303 302 299 297 297 299 301 302 305 305 303 301 297 294
307 306 306 305 305 304 302 299 297 298 298 297 296 296 297 297 298 296 297 298 296 296 295 298 301 299 298 297 298 297 298 299 300 298 298 301 302 301
Wind_Speed
5 4 3 2 1 1 1 3 4 1 3 3 1 3 1 2 4 5 6 10 13 14 13 13 13 13 13 13 13 12 12 12 11 10 10 11 11 11
4 6 5 2 1 1 1 2 2 4 2 4 2 2 1 1 5 7 7 9 12 14 13 15 15 17 15 14 14 14 14 15 15 14 13 12 12 12
5 6 6 5 3 2 2 1 2 3 3 4 3 3 3 3 4 4 6 6 5 11 13 15 15 15 17 16 15 16 16 16 15 15 15 14 14 14
8 7 7 4 5 5 3 3 3 3 4 5 3 2 3 5 5 5 5 4 4 7 10 12 15 16 16 19 18 17 17 16 17 15 16 16 16 15
8 7 7 7 6 5 5 4 3 2 2 2 3 2 3 3 4 2 2 3 3 9 12 13 13 9 13 14 16 16 17 16 13 17 18 17 17 16
8 9 8 8 8 7 6 6 5 3 1 2 3 3 3 3 1 1 4 2 4 5 5 5 6 7 8 10 14 14 15 17 18 16 16 17 17 18
9 9 9 10 12 11 6 6 5 4 3 3 3 3 3 2 3 3 2 2 4 3 2 4 2 3 5 6 8 12 14 16 17 18 16 17 17 17
9 8 8 12 10 14 12 11 10 6 4 4 2 4 5 3 2 2 3 2 3 2 2 6 2 7 8 4 11 15 13 14 15 13 15 13 15 16
10 8 7 7 9 7 6 7 7 8 7 5 6 6 5 4 2 4 3 3 4 6 2 6 3 6 7 7 13 15 16 10 9 13 13 15 16 18
9 8 8 7 5 6 6 5 6 5 6 5 7 8 6 7 5 5 6 4 3 5 3 5 4 5 5 5 10 12 11 11 11 12 13 14 15 16
6 6 8 6 7 7 6 6 6 5 5 11 12 13 11 11 13 1 5 2 4 4 3 4 4 4 3 5 6 11 11 13 16 17 18 18 19 21
5 6 7 6 8 13 8 6 6 5 5 5 3 4 7 7 12 7 7 4 4 3 4 2 4 3 7 3 3 4 8 15 18 19 20 20 20 12
5 4 4 8 6 9 9 6 6 1 2 3 4 4 5 5 5 4 5 5 4 5 7 2 3 3 3 5 3 5 8 10 9 11 14 16 18 19
5 4 5 9 8 10 10 7 7 5 3 3 3 4 4 3 3 3 5 5 4 7 6 5 4 3 3 3 6 5 8 10 9 10 11 14 15 15
3 3 4 5 6 4 8 10 9 3 4 3 4 4 3 3 4 4 4 3 3 4 5 3 4 4 3 5 6 8 11 8 10 8 12 10 13 15
6 4 4 4 5 4 4 4 4 5 5 4 4 3 1 2 2 2 2 3 2 5 8 6 5 5 3 5 4 10 9 8 11 10 10 16 14 15
5 3 1 2 2 3 3 4 5 5 5 4 2 2 1 1 2 2 2 3 2 3 4 4 3 5 5 6 7 8 10 10 12 13 15 15 16 14
2 3 3 5 5 6 7 5 5 7 4 2 2 2 1 2 3 3 2 2 3 4 4 3 2 4 4 5 9 5 8 10 12 14 13 13 19 17
3 3 4 4 4 4 5 4 2 2 3 1 2 2 1 2 3 3 3 3 4 4 4 1 1 1 3 8 5 6 8 11 13 12 10 11 17 19
2 2 2 2 3 3 3 4 3 4 3 2 1 2 3 2 2 3 4 3 4 4 3 1 1 2 2 4 6 9 9 10 12 12 12 10 12 27
2 1 3 5 5 5 5 4 3 3 2 1 2 2 4 1 3 4 5 7 6 2 3 3 3 5 4 3 4 6 7 12 12 11 13 12 14 10
5 5 4 4 5 5 4 3 2 2 2 3 3 2 2 2 3 5 4 5 4 3 3 3 2 3 3 2 5 8 8 11 14 16 18 22 12 11
5 5 4 4 4 4 4 2 0 3 1 3 3 3 4 4 5 4 4 5 4 4 3 3 1 2 2 2 4 5 10 12 11 12 11 22 20 19
Wind_Direction
209 212 194 213 110 42 112 144 150 186 299 314 12 359 139 111 200 188 207 215 212 218 222 232 238 237 237 239 242 242 245 250 255 259 263 275 282 287
201 204 229 204 166 21 0 168 114 147 200 203 269 259 288 177 207 199 223 225 218 219 221 230 238 245 245 236 234 241 243 240 241 243 241 246 258 271
199 197 207 186 186 191 144 134 168 162 179 295 214 226 233 245 275 250 234 236 237 227 232 243 244 247 250 250 239 232 237 245 245 246 248 246 241 246
199 185 196 188 210 218 193 207 204 190 164 227 267 287 285 284 248 268 262 240 240 256 249 240 244 246 247 241 240 244 240 234 238 243 247 245 247 244
196 193 199 192 206 205 206 208 213 210 167 178 268 263 250 252 292 265 274 286 275 258 261 269 283 276 267 245 246 247 250 252 243 240 241 245 245 249
204 196 193 205 207 202 201 204 214 218 191 203 250 259 249 287 126 108 303 287 289 295 300 296 304 313 293 269 263 253 249 248 252 256 245 242 242 245
206 207 206 209 205 197 191 207 181 179 177 222 240 233 248 237 211 227 240 275 286 253 266 285 342 309 295 287 267 254 245 244 248 251 249 243 244 249
216 213 213 214 218 199 190 175 176 173 194 196 232 240 263 260 257 239 197 209 277 241 117 289 263 288 276 256 260 275 271 247 247 246 244 249 246 248
217 217 215 214 180 186 229 212 189 198 196 181 222 216 245 225 249 269 255 229 228 282 303 277 240 261 266 272 270 275 271 284 250 248 243 241 242 243
212 204 209 219 194 181 183 215 228 216 224 225 223 241 224 250 225 239 242 248 295 272 195 256 265 252 260 259 282 281 274 268 263 257 250 254 255 257
211 212 222 218 199 194 189 214 240 251 249 225 223 237 248 256 261 214 267 238 273 256 230 198 265 265 238 273 266 265 287 287 278 270 269 270 271 264
247 252 229 219 196 196 193 193 236 253 250 294 306 277 252 262 255 210 255 234 263 308 261 192 270 282 301 246 259 270 269 260 257 262 265 266 261 265
218 235 224 218 208 188 191 194 206 163 281 289 288 289 292 287 280 262 201 186 224 233 262 225 270 274 243 301 267 267 273 276 266 273 266 269 263 258
216 219 221 220 202 199 186 202 171 168 228 269 285 283 283 292 253 252 252 244 235 241 273 237 232 238 253 278 274 288 297 289 284 284 286 276 267 263
160 127 139 156 174 177 190 191 178 193 225 229 249 257 234 273 296 314 324 329 312 291 282 269 228 266 221 243 285 300 312 306 295 278 291 284 292 281
112 133 178 171 142 126 136 194 193 204 207 215 228 236 281 334 329 319 314 300 327 302 301 269 235 189 266 254 264 296 301 300 305 302 303 290 285 275
152 109 134 79 155 197 214 200 214 217 222 229 241 264 263 332 307 295 280 302 276 270 288 284 296 249 246 246 288 293 295 300 310 311 303 295 284 279
119 167 190 206 208 204 204 205 206 213 220 224 193 203 270 273 285 304 280 265 268 278 273 282 335 338 329 292 239 279 297 306 314 310 302 297 298 302
166 202 206 215 226 188 182 177 182 228 152 115 11 329 292 301 324 295 298 298 291 281 285 237 351 71 302 307 279 282 306 316 314 311 307 308 301 304
220 232 257 267 155 112 99 99 76 83 92 111 11 301 316 328 301 317 313 282 293 292 305 270 293 229 218 286 304 302 297 316 322 321 323 314 294 300
188 81 97 99 88 92 94 93 101 113 150 359 329 338 315 273 326 320 306 307 310 304 305 275 237 263 270 295 315 309 320 323 326 334 335 327 332 328
122 108 102 101 106 109 107 104 64 4 314 284 267 301 315 10 337 309 310 315 298 277 259 267 259 32 9 322 312 317 326 332 340 343 353 358 347 348
128 117 115 129 133 130 122 120 32 297 287 119 90 45 19 354 322 303 318 312 295 325 297 296 232 78 342 306 312 317 334 341 342 344 355 359 358 5